Departure
Benito Salas Airport
Neiva, CO
cloud Weather
- Wind
- VRB / 2 kt
- Visibility
- 6 SM
- Ceiling
- CAVOK
- Temp / Dew
- 26°C / 18°C
- Altimeter
- 29.88 inHg
Obs: 2026-09-01T08:00:00.000Z
Raw METAR
METAR SKNV 010800Z AUTO VRB02KT CAVOK 26/18 Q1012
route Route
Departure
Neiva, CO
Obs: 2026-09-01T08:00:00.000Z
METAR SKNV 010800Z AUTO VRB02KT CAVOK 26/18 Q1012
Arrival
Bogota, CO
Obs: 2026-09-01T08:00:00.000Z
METAR SKBO 010800Z VRB02KT 9999 BKN070 12/11 Q1028 NOSIG TAF SKBO 010455Z 0106/0206 VRB03KT 9999 SCT040 TEMPO 0121/0123 8000 DZRA BKN040TCU TX21/0117Z TN11/0110Z
| Airline | Flights shown |
|---|---|
| EasyFly | 26 |
| Avianca Express | 12 |
| LATAM Airlines Colombia | 12 |
| Date | Flight | Aircraft | Takeoff | Landing | Duration | Arr Δ |
|---|---|---|---|---|---|---|
| 2026-07-26 | AVR4834 | 0AC3F8 | Jul 26, 20:35 UTC | Jul 26, 20:55 UTC | 20m | - |
| 2026-07-26 | EFY9045 | 0ACC60 | Jul 26, 19:20 UTC | Jul 26, 19:40 UTC | 20m | - |
| 2026-07-26 | AVR4816 | 0ACAC1 | Jul 26, 14:10 UTC | Jul 26, 14:30 UTC | 20m | - |
| 2026-07-26 | ARE4259 | E8042B | Jul 26, 04:30 UTC | Jul 26, 05:00 UTC | 30m | - |
| 2026-07-25 | EFY9047 | 0AC3F9 | Jul 25, 23:00 UTC | Jul 25, 23:25 UTC | 25m | - |
| 2026-07-25 | ARE4299 | E80238 | Jul 25, 21:05 UTC | Jul 25, 21:20 UTC | 15m | - |
| 2026-07-25 | AVR4834 | 0ACCAD | Jul 25, 20:30 UTC | Jul 25, 20:50 UTC | 20m | - |
| 2026-07-25 | EFY9045 | 0ACA34 | Jul 25, 18:40 UTC | Jul 25, 19:05 UTC | 25m | - |
| 2026-07-25 | AVR4816 | 0ACA89 | Jul 25, 14:15 UTC | Jul 25, 14:35 UTC | 20m | - |
| 2026-07-25 | EFY9041 | 0AC997 | Jul 25, 12:55 UTC | Jul 25, 13:15 UTC | 20m | - |
| 2026-07-25 | ARE4259 | E80219 | Jul 25, 04:25 UTC | Jul 25, 04:50 UTC | 25m | - |
| 2026-07-25 | EFY9043 | 0AC426 | Jul 25, 02:45 UTC | Jul 25, 03:10 UTC | 25m | - |
| 2026-07-25 | EFY9049 | 0ACA7D | Jul 25, 02:35 UTC | Jul 25, 03:05 UTC | 30m | - |
| 2026-07-25 | EFY9047 | 0AC956 | Jul 25, 00:30 UTC | Jul 25, 00:55 UTC | 25m | - |
| 2026-07-24 | ARE4299 | E80207 | Jul 24, 21:30 UTC | Jul 24, 21:50 UTC | 20m | - |
| 2026-07-24 | AVR4834 | 0AC3F8 | Jul 24, 20:40 UTC | Jul 24, 21:05 UTC | 25m | - |
| 2026-07-24 | EFY9045 | 0AC420 | Jul 24, 20:00 UTC | Jul 24, 20:30 UTC | 30m | - |
| 2026-07-24 | AVR4816 | 0AC95A | Jul 24, 14:15 UTC | Jul 24, 14:35 UTC | 20m | - |
| 2026-07-24 | EFY9041 | 0AC3F9 | Jul 24, 12:45 UTC | Jul 24, 13:10 UTC | 25m | - |
| 2026-07-24 | ARE4259 | E8043E | Jul 24, 04:25 UTC | Jul 24, 04:35 UTC | 10m | - |
| 2026-07-23 | EFY9047 | 0AC420 | Jul 23, 22:50 UTC | Jul 23, 23:15 UTC | 25m | - |
| 2026-07-23 | ARE4299 | E80269 | Jul 23, 21:15 UTC | Jul 23, 21:30 UTC | 15m | - |
| 2026-07-23 | EFY9045 | 0AC3F8 | Jul 23, 19:05 UTC | Jul 23, 19:25 UTC | 20m | - |
| 2026-07-23 | ARE4259 | E8042C | Jul 23, 04:25 UTC | Jul 23, 04:55 UTC | 30m | - |
| 2026-07-23 | EFY9049 | 0AC985 | Jul 23, 02:30 UTC | Jul 23, 02:50 UTC | 20m | - |
| 2026-07-23 | EFY9047 | 0ACA7D | Jul 23, 00:15 UTC | Jul 23, 00:35 UTC | 20m | - |
| 2026-07-22 | ARE4299 | E8047A | Jul 22, 21:15 UTC | Jul 22, 21:35 UTC | 20m | - |
| 2026-07-22 | EFY9045 | 0AC956 | Jul 22, 18:55 UTC | Jul 22, 19:20 UTC | 25m | - |
| 2026-07-22 | AVR4816 | A682F2 | Jul 22, 14:15 UTC | Jul 22, 14:30 UTC | 15m | - |
| 2026-07-22 | ARE4259 | E80238 | Jul 22, 04:25 UTC | Jul 22, 04:55 UTC | 30m | - |
| 2026-07-22 | EFY9049 | 0AC956 | Jul 22, 02:50 UTC | Jul 22, 03:05 UTC | 15m | - |
| 2026-07-21 | EFY9047 | 0ACA34 | Jul 21, 23:25 UTC | Jul 21, 23:50 UTC | 25m | - |
| 2026-07-21 | EFY9045 | 0AC420 | Jul 21, 19:05 UTC | Jul 21, 19:25 UTC | 20m | - |
| 2026-07-21 | AVR4816 | ADDA25 | Jul 21, 14:15 UTC | Jul 21, 14:35 UTC | 20m | - |
| 2026-07-21 | ARE4259 | E80436 | Jul 21, 04:50 UTC | Jul 21, 05:20 UTC | 30m | - |
| 2026-07-21 | EFY9049 | 0AC959 | Jul 21, 02:45 UTC | Jul 21, 03:05 UTC | 20m | - |
| 2026-07-20 | EFY9047 | 0ACCE3 | Jul 20, 23:40 UTC | Jul 21, 00:05 UTC | 25m | - |
| 2026-07-20 | AVR4816 | A4EA7E | Jul 20, 13:55 UTC | Jul 20, 14:15 UTC | 20m | - |
| 2026-07-20 | ARE4259 | E80436 | Jul 20, 04:30 UTC | Jul 20, 05:00 UTC | 30m | - |
| 2026-07-19 | EFY9045 | 0AC985 | Jul 19, 18:55 UTC | Jul 19, 19:15 UTC | 20m | - |
| 2026-07-18 | EFY9045 | 0AC997 | Jul 18, 20:40 UTC | Jul 18, 21:10 UTC | 30m | - |
| 2026-07-17 | EFY9045 | 0AC985 | Jul 17, 19:55 UTC | Jul 17, 20:20 UTC | 25m | - |
| 2026-06-17 | AVR4816 | AD474E | Jun 17, 14:10 UTC | Jun 17, 14:30 UTC | 20m | - |
| 2026-06-15 | EFY9045 | 0AC3CA | Jun 15, 18:55 UTC | Jun 15, 19:20 UTC | 25m | - |
| 2026-06-15 | AVR4816 | 0AC9C3 | Jun 15, 14:10 UTC | Jun 15, 14:30 UTC | 20m | - |
| 2026-06-13 | EFY9043 | 0AC956 | Jun 13, 02:35 UTC | Jun 13, 03:00 UTC | 25m | - |
| 2026-06-13 | EFY9049 | 0ACCCB | Jun 13, 02:25 UTC | Jun 13, 02:45 UTC | 20m | - |
| 2026-06-12 | EFY9047 | 0AC426 | Jun 12, 22:20 UTC | Jun 12, 22:50 UTC | 30m | - |
| 2026-06-12 | ARE4299 | E80247 | Jun 12, 21:30 UTC | Jun 12, 21:50 UTC | 20m | - |
| 2026-06-12 | AVR4834 | 0AC3F8 | Jun 12, 20:30 UTC | Jun 12, 20:55 UTC | 25m | - |